Weather History for Lawrence, KS

Change the Weather History Date:

Friday, February 1, 2013

  Actual Average Record
Temperature  
Mean Temperature 16 °F 31 °F  
Max Temperature 29 °F 42 °F 64 °F (2012)
Min Temperature 3 °F 20 °F 3 °F (2013)
Degree Days  
Heating Degree Days 49 34  
Month to date heating degree days 49 34  
Since 1 July heating degree days 2986 3185  
Cooling Degree Days 0 0  
Month to date cooling degree days 0 0  
Year to date cooling degree days 0 0  
Moisture  
Dew Point 8 °F    
Average Humidity 65    
Maximum Humidity 83    
Minimum Humidity 46    
Precipitation  
Precipitation 0.00 in 0.05 in 0.32 in (2004)
Month to date precipitation 0.00 0.05  
Year to date precipitation 0.96 1.06  
Sea Level Pressure  
Sea Level Pressure 30.37 in    
Wind  
Wind Speed 6 mph (South)    
Max Wind Speed 15 mph    
Max Gust Speed 20 mph    
Visibility 10 miles    
Events      
T = Trace of Precipitation, MM = Missing Value Source: NWS Daily Summary

Daily Weather History Graph

Daily Weather History Graph

Search for Another Location

Airport:

Trip Planner

Search our weather history database for the weather conditions in past years. The results will help you decide how hot, cold, wet, or windy it might be!

Date:

Astronomy

Feb. 01, 2013 Rise Set
Actual Time 7:27 AM CST 5:42 PM CST
Civil Twilight 6:58 AM CST 6:10 PM CST
Nautical Twilight 6:26 AM CST 6:42 PM CST
Astronomical Twilight 5:55 AM CST 7:13 PM CST
Moon 11:47 PM CST (2/1) 10:04 AM CST (2/1)
Length of Visible Light 11h 11m
Length of Day
10h 15m
Waning Gibbous, 70% of the Moon is Illuminated
Feb 1
Waning Gibbous
Feb 3
Last Quarter
Feb 10
New
Feb 17
First Quarter
Feb 25
Full

Hourly Weather History & Observations

Time (CST) Temp. Windchill Dew Point Humidity Pressure Visibility Wind Dir Wind Speed Gust Speed Precip Events Conditions
12:52 AM 6.1 °F - 1.0 °F 80% 30.52 in 10.0 mi Calm Calm - N/A   Clear
1:52 AM 5.0 °F - -0.0 °F 80% 30.51 in 10.0 mi Calm Calm - N/A   Clear
2:52 AM 5.0 °F - -0.0 °F 80% 30.51 in 10.0 mi Calm Calm - N/A   Clear
3:52 AM 7.0 °F -1.7 °F 1.0 °F 77% 30.46 in 10.0 mi East 4.6 mph - N/A   Clear
4:52 AM 5.0 °F - -0.9 °F 76% 30.48 in 10.0 mi Calm Calm - N/A   Clear
6:52 AM 5.0 °F - -0.0 °F 80% 30.51 in 10.0 mi Calm Calm - N/A   Clear
7:52 AM 7.0 °F - 1.9 °F 80% 30.52 in 10.0 mi Calm Calm - N/A   Clear
8:52 AM 12.9 °F 6.9 °F 5.0 °F 71% 30.51 in 10.0 mi SSE 3.5 mph - N/A   Clear
9:52 AM 17.1 °F 5.8 °F 7.0 °F 65% 30.47 in 10.0 mi SSE 9.2 mph - N/A   Clear
10:52 AM 21.0 °F 10.6 °F 8.1 °F 57% 30.45 in 10.0 mi South 9.2 mph - N/A   Clear
11:52 AM 24.1 °F 13.7 °F 9.0 °F 53% 30.41 in 10.0 mi South 10.4 mph - N/A   Partly Cloudy
12:52 PM 25.0 °F 13.6 °F 10.0 °F 53% 30.38 in 10.0 mi South 12.7 mph - N/A   Partly Cloudy
1:52 PM 27.0 °F 15.2 °F 10.9 °F 51% 30.35 in 10.0 mi SSW 15.0 mph - N/A   Mostly Cloudy
2:52 PM 28.0 °F 18.1 °F 10.9 °F 49% 30.32 in 10.0 mi South 11.5 mph - N/A   Mostly Cloudy
3:52 PM 28.9 °F 19.8 °F 12.0 °F 49% 30.29 in 10.0 mi South 10.4 mph - N/A   Partly Cloudy
4:52 PM 28.0 °F 18.6 °F 12.0 °F 51% 30.27 in 10.0 mi South 10.4 mph - N/A   Scattered Clouds
5:52 PM 28.0 °F 20.8 °F 12.9 °F 53% 30.24 in 10.0 mi SSE 6.9 mph - N/A   Scattered Clouds
6:52 PM 24.1 °F 17.0 °F 14.0 °F 65% 30.26 in 10.0 mi SSW 5.8 mph - N/A   Clear
7:52 PM 24.1 °F 17.0 °F 14.0 °F 65% 30.24 in 10.0 mi South 5.8 mph - N/A   Clear
8:52 PM 25.0 °F 17.1 °F 14.0 °F 63% 30.23 in 10.0 mi South 6.9 mph - N/A   Clear
9:52 PM 25.0 °F 18.1 °F 14.0 °F 63% 30.22 in 10.0 mi SSE 5.8 mph - N/A   Clear
10:52 PM 26.1 °F 19.4 °F 15.1 °F 63% 30.20 in 10.0 mi South 5.8 mph - N/A   Mostly Cloudy
11:52 PM 26.1 °F 21.9 °F 14.0 °F 60% 30.18 in 10.0 mi South 3.5 mph - N/A   Partly Cloudy